Previsão horária em Sena Madureira

Hoje, 30 Julho, Sexta-feira

Tempo Temperatura Precipitação Vento Pressão Humidade
00:00 +16°C° 0 mm 1 m/s 751 mmHg 39%
01:00 +15°C° 0 mm 1 m/s 751 mmHg 40%
02:00 +14°C° 0 mm 1 m/s 751 mmHg 41%
03:00 +14°C° 0 mm 1 m/s 751 mmHg 42%
04:00 +13°C° 0 mm 1 m/s 751 mmHg 43%
05:00 +14°C° 0 mm 1 m/s 752 mmHg 41%
06:00 +15°C° 0 mm 1 m/s 752 mmHg 39%
07:00 +16°C° 0 mm 1 m/s 752 mmHg 37%
08:00 +19°C° 0 mm 2 m/s 753 mmHg 32%
09:00 +24°C° 0 mm 2 m/s 753 mmHg 27%
10:00 +27°C° 0 mm 2 m/s 753 mmHg 21%
11:00 +29°C° 0 mm 2 m/s 752 mmHg 21%
12:00 +30°C° 0 mm 2 m/s 751 mmHg 21%
13:00 +32°C° 0 mm 1 m/s 750 mmHg 21%
14:00 +32°C° 0 mm 1 m/s 749 mmHg 22%
15:00 +32°C° 0 mm 1 m/s 749 mmHg 23%
16:00 +32°C° 0 mm 1 m/s 748 mmHg 24%
17:00 +29°C° 0 mm 1 m/s 748 mmHg 30%
18:00 +24°C° 0 mm 0 m/s 748 mmHg 37%
19:00 +21°C° 0 mm 0 m/s 749 mmHg 43%
20:00 +21°C° 0 mm 0 m/s 749 mmHg 44%
21:00 +20°C° 0 mm 0 m/s 749 mmHg 45%
22:00 +19°C° 0 mm 0 m/s 750 mmHg 47%
23:00 +19°C° 0 mm 0 m/s 750 mmHg 48%

Amanhã, 31 Julho, Sábado

Tempo Temperatura Precipitação Vento Pressão Humidade
00:00 +20°C° 0 mm 1 m/s 749 mmHg 49%
01:00 +20°C° 0 mm 1 m/s 749 mmHg 50%
02:00 +19°C° 0 mm 1 m/s 749 mmHg 52%
03:00 +18°C° 0 mm 1 m/s 749 mmHg 54%
04:00 +18°C° 0 mm 1 m/s 750 mmHg 56%
05:00 +18°C° 0 mm 1 m/s 750 mmHg 54%
06:00 +19°C° 0 mm 1 m/s 751 mmHg 51%
07:00 +19°C° 0 mm 1 m/s 751 mmHg 48%
08:00 +23°C° 0 mm 1 m/s 751 mmHg 40%
09:00 +27°C° 0 mm 1 m/s 752 mmHg 32%
10:00 +31°C° 0 mm 1 m/s 752 mmHg 24%
11:00 +32°C° 0 mm 1 m/s 751 mmHg 22%
12:00 +34°C° 0 mm 1 m/s 750 mmHg 21%
13:00 +34°C° 0 mm 0 m/s 749 mmHg 19%
14:00 +34°C° 0 mm 0 m/s 748 mmHg 20%
15:00 +33°C° 0 mm 0 m/s 748 mmHg 20%
16:00 +33°C° 0 mm 0 m/s 747 mmHg 21%
17:00 +30°C° 0 mm 0 m/s 748 mmHg 27%
18:00 +26°C° 0 mm 0 m/s 748 mmHg 33%
19:00 +23°C° 0 mm 0 m/s 748 mmHg 39%
20:00 +22°C° 0 mm 0 m/s 749 mmHg 41%
21:00 +22°C° 0 mm 0 m/s 749 mmHg 43%
22:00 +21°C° 0 mm 0 m/s 749 mmHg 45%
23:00 +20°C° 0 mm 0 m/s 749 mmHg 46%

Depois de amanhã, 1 Agosto, Domingo

Tempo Temperatura Precipitação Vento Pressão Humidade
00:00 +20°C° 0 mm 0 m/s 749 mmHg 48%
01:00 +19°C° 0 mm 0 m/s 749 mmHg 49%
02:00 +19°C° 0 mm 0 m/s 749 mmHg 50%
03:00 +18°C° 0 mm 0 m/s 750 mmHg 51%
04:00 +20°C° 0 mm 1 m/s 750 mmHg 52%
05:00 +20°C° 0 mm 1 m/s 751 mmHg 52%
06:00 +21°C° 0 mm 1 m/s 751 mmHg 51%
07:00 +22°C° 0 mm 1 m/s 752 mmHg 50%
08:00 +25°C° 0 mm 1 m/s 752 mmHg 41%
09:00 +29°C° 0 mm 1 m/s 752 mmHg 33%
10:00 +34°C° 0 mm 2 m/s 753 mmHg 24%
11:00 +35°C° 0 mm 2 m/s 752 mmHg 22%
12:00 +37°C° 0 mm 2 m/s 751 mmHg 20%
13:00 +38°C° 0 mm 2 m/s 750 mmHg 18%
14:00 +38°C° 0 mm 2 m/s 749 mmHg 18%
15:00 +37°C° 0 mm 1 m/s 749 mmHg 19%
16:00 +36°C° 0 mm 1 m/s 748 mmHg 20%
17:00 +33°C° 0 mm 1 m/s 748 mmHg 25%
18:00 +30°C° 0 mm 1 m/s 749 mmHg 31%
19:00 +27°C° 0 mm 1 m/s 749 mmHg 37%
20:00 +26°C° 0 mm 1 m/s 750 mmHg 39%
21:00 +25°C° 0 mm 1 m/s 750 mmHg 41%
22:00 +24°C° 0 mm 1 m/s 750 mmHg 42%
23:00 +24°C° 0 mm 1 m/s 750 mmHg 43%

2 Agosto, Segunda-feira

Tempo Temperatura Precipitação Vento Pressão Humidade
00:00 +23°C° 0 mm 1 m/s 750 mmHg 44%
01:00 +23°C° 0 mm 1 m/s 750 mmHg 45%
02:00 +23°C° 0 mm 1 m/s 750 mmHg 44%
03:00 +23°C° 0 mm 2 m/s 750 mmHg 42%
04:00 +23°C° 0 mm 2 m/s 751 mmHg 41%
05:00 +24°C° 0 mm 2 m/s 751 mmHg 40%
06:00 +24°C° 0 mm 2 m/s 752 mmHg 40%
07:00 +24°C° 0 mm 2 m/s 752 mmHg 39%
08:00 +27°C° 0 mm 2 m/s 752 mmHg 33%
09:00 +29°C° 0 mm 3 m/s 752 mmHg 27%
10:00 +33°C° 0 mm 3 m/s 752 mmHg 21%
11:00 +35°C° 0 mm 3 m/s 751 mmHg 20%
12:00 +36°C° 0 mm 2 m/s 750 mmHg 19%
13:00 +38°C° 0 mm 2 m/s 749 mmHg 17%
14:00 +38°C° 0 mm 2 m/s 749 mmHg 18%
15:00 +38°C° 0 mm 2 m/s 748 mmHg 18%
16:00 +37°C° 0 mm 2 m/s 747 mmHg 19%
17:00 +33°C° 0 mm 1 m/s 748 mmHg 25%
18:00 +30°C° 0 mm 1 m/s 748 mmHg 30%
19:00 +27°C° 0 mm 1 m/s 749 mmHg 36%
20:00 +26°C° 0 mm 1 m/s 749 mmHg 38%
21:00 +25°C° 0 mm 1 m/s 749 mmHg 39%
22:00 +24°C° 0 mm 1 m/s 749 mmHg 41%
23:00 +23°C° 0 mm 1 m/s 749 mmHg 42%

3 Agosto, Terça-feira

Tempo Temperatura Precipitação Vento Pressão Humidade
00:00 +23°C° 0 mm 1 m/s 749 mmHg 43%
01:00 +22°C° 0 mm 1 m/s 749 mmHg 43%
02:00 +22°C° 0 mm 1 m/s 749 mmHg 44%
03:00 +21°C° 0 mm 1 m/s 749 mmHg 44%
04:00 +21°C° 0 mm 1 m/s 749 mmHg 45%
05:00 +22°C° 0 mm 1 m/s 750 mmHg 44%
06:00 +22°C° 0 mm 1 m/s 750 mmHg 44%
07:00 +23°C° 0 mm 1 m/s 750 mmHg 43%
08:00 +27°C° 0 mm 1 m/s 751 mmHg 36%
09:00 +30°C° 0 mm 2 m/s 751 mmHg 28%
10:00 +35°C° 0 mm 2 m/s 751 mmHg 20%
11:00 +36°C° 0 mm 2 m/s 750 mmHg 19%
12:00 +38°C° 0 mm 2 m/s 749 mmHg 18%
13:00 +39°C° 0 mm 2 m/s 748 mmHg 17%
14:00 +39°C° 0 mm 2 m/s 748 mmHg 18%
15:00 +39°C° 0 mm 1 m/s 747 mmHg 18%
16:00 +37°C° 0 mm 1 m/s 747 mmHg 19%
17:00 +34°C° 0 mm 1 m/s 747 mmHg 24%
18:00 +31°C° 0 mm 1 m/s 747 mmHg 30%
19:00 +26°C° 0 mm 0 m/s 747 mmHg 35%
20:00 +25°C° 0 mm 0 m/s 748 mmHg 37%
21:00 +24°C° 0 mm 0 m/s 748 mmHg 40%
22:00 +23°C° 0 mm 0 m/s 748 mmHg 42%
23:00 +22°C° 0 mm 0 m/s 748 mmHg 44%

4 Agosto, Quarta-feira

Tempo Temperatura Precipitação Vento Pressão Humidade
00:00 +22°C° 0 mm 0 m/s 748 mmHg 46%
01:00 +21°C° 0 mm 0 m/s 748 mmHg 47%
02:00 +21°C° 0 mm 0 m/s 749 mmHg 48%
03:00 +21°C° 0 mm 0 m/s 749 mmHg 48%
04:00 +21°C° 0 mm 0 m/s 749 mmHg 49%
05:00 +21°C° 0 mm 0 m/s 749 mmHg 48%
06:00 +24°C° 0 mm 1 m/s 750 mmHg 48%
07:00 +24°C° 0 mm 1 m/s 750 mmHg 47%
08:00 +26°C° 0 mm 1 m/s 751 mmHg 42%
09:00 +28°C° 0 mm 1 m/s 751 mmHg 36%
10:00 +30°C° 0 mm 1 m/s 751 mmHg 31%
11:00 +33°C° 0 mm 1 m/s 750 mmHg 27%
12:00 +36°C° 0 mm 2 m/s 750 mmHg 22%
13:00 +39°C° 0 mm 2 m/s 749 mmHg 18%
14:00 +39°C° 0 mm 1 m/s 748 mmHg 18%
15:00 +39°C° 0 mm 1 m/s 747 mmHg 18%
16:00 +39°C° 0 mm 1 m/s 747 mmHg 19%
17:00 +35°C° 0 mm 1 m/s 747 mmHg 25%
18:00 +31°C° 0 mm 1 m/s 747 mmHg 30%
19:00 +28°C° 0 mm 1 m/s 748 mmHg 36%
20:00 +26°C° 0 mm 0 m/s 748 mmHg 38%
21:00 +25°C° 0 mm 0 m/s 749 mmHg 39%
22:00 +25°C° 0 mm 0 m/s 749 mmHg 41%
23:00 +24°C° 0 mm 0 m/s 749 mmHg 42%
Mostrar mais

Necessitamos do seu Consentimento

A Meteoprog e os seus Fornecedores de Serviços podem armazenar e aceder a dados pessoais como cookies, identificadores do dispositivo ou outras tecnologias semelhantes existentes no seu dispositivo e processar estes dados para personalizar conteúdos e anúncios, assim como funcionalidades nas redes sociais e análise de tráfego.

  • Armazenar e/ou aceder a informações no seu dispositivo

    Os cookies, identificadores do dispositivo ou outras informações podem ser armazenados ou acedidos no seu dispositivo, para os fins acima indicados.

  • Anúncios e conteúdos personalizados, medição de anúncios e conteúdos, dados sobre o público-alvo e desenvolvimento de produtos

    Os anúncios e os conteúdos podem ser personalizados com base num perfil. Podem ser adicionados dados adicionais para uma maior personalização dos anúncios e dos conteúdos. A eficácia dos anúncios e dos conteúdos pode ser medida. Podem ser obtidas informações sobre o público que visualizou os anúncios e os conteúdos. Estes dados podem ser usados para desenvolver ou melhorar sistemas, softwares ou a experiência do utilizador.

Ao clicar em "Eu concordo”, permitirá o uso de cookies, identificadores do dispositivo e web beacons mencionados ou outras tecnologias semelhantes. As configurações do navegador do seu dispositivo podem ser alteradas.

Para certos fins, podem ser invocados interesses legítimos ao invés de consentimento. Pode ler mais informação sobre este assunto na nossa Política de Privacidade e Cookies.